Regional Weather Roundup
Issued by NWS Charleston, SC

Current Version | Previous Version | Graphics & Text | Print | Product List | Glossary On
Versions: 1 2 3 4 5 6 7 8 9 10 11 12 13 14 15 16 17 18 19 20 21 22 23 24 25 26 27 28 29 30 31 32 33 34 35 36 37 38 39 40 41 42 43 44 45 46 47 48 49 50
000 ASUS42 KCHS 251927 RWRCHS REGIONAL WEATHER ROUNDUP NATIONAL WEATHER SERVICE CHARLESTON SC 300 PM EDT SUN JUN 25 2017 NOTE: "FAIR" INDICATES FEW OR NO CLOUDS BELOW 12,000 FEET WITH NO SIGNIFICANT WEATHER AND/OR OBSTRUCTIONS TO VISIBILITY. NOT ALL STATIONS ARE QUALITY CONTROLLED. USE DATA WITH CAUTION... ESPECIALLY DEWPOINT OBSERVATIONS. SCZ027-030-031-034>040-042>050-252000- ...SOUTHEAST SOUTH CAROLINA... CITY SKY/WX TMP DP RH WIND PRES REMARKS N CHARLESTON PTSUNNY 86 74 67 SW8 30.02F THUNDER HX 94 WATERFRONT PRK N/A 85 76 74 S8 30.02F HX 95 JOHNS ISLAND FAIR 84 77 79 S10 30.04S HX 94 PINOPOLIS N/A 84 73 70 N5 29.98F HX 91 MONCKS CORNER TSTM 75 72 88 SE3 30.04S SUMMERVILLE TSTM 73 72 94 NW5 30.07F BEAUFORT MCAS FOG 74 74 100 SW21G29 30.11R THUNDER VSB 3/4 BEAUFORT ARPT TSTM 79 73 83 W16G26 30.07R HILTON HEAD IS MOSUNNY 84 77 79 SW8 30.04F THUNDER HX 94 WALTERBORO RAIN 75 73 94 NW10 30.06S ALLENDALE CLOUDY 77 77 100 CALM 30.05S ...SOUTHERN MIDLANDS AND PEE DEE... CITY SKY/WX TMP DP RH WIND PRES REMARKS GEORGETOWN CLOUDY 88 73 62 W6 30.03F HX 96 KINGSTREE LGT RAIN 82 73 74 W5 30.04F ORANGEBURG CLOUDY 82 74 76 S8 30.06S BARNWELL MOCLDY 86 79 79 SE12 30.04F HX 99 AIKEN FAIR 86 72 62 N8 30.08F HX 92 MANNING FAIR 82 77 83 SW15 30.05S HX 91 COLUMBIA MOSUNNY 89 69 51 N8 30.03F HX 93 SUMTER MOSUNNY 87 72 60 N3 30.02F HX 93 FLORENCE MOSUNNY 86 72 62 VRB3 30.04F HX 92 MYRTLE BEACH PTSUNNY 86 73 66 SW9 30.05F HX 93 N MYRTLE BEACH CLOUDY 84 75 74 S8 30.03F HX 92 $$ GAZ063-065-086>088-099>101-113>116-118-119-134>141-150-252000- ...SOUTHEAST GEORGIA... CITY SKY/WX TMP DP RH WIND PRES REMARKS SAVANNAH ARPT TSTM 79 75 87 NW15 30.04S HUNTER AAF PTSUNNY 87 75 68 N9 30.01S HX 96 FORT STEWART DRIZZLE 77 72 83 SW5 30.03R STATESBORO CLOUDY 79 79 99 CALM 30.05F SYLVANIA CLOUDY 77 77 99 CALM 30.06F CLAXTON RAIN 74 73 95 CALM 30.05F ...CSRA...CENTRAL AND FAR SOUTHEAST GEORGIA... CITY SKY/WX TMP DP RH WIND PRES REMARKS THOMSON PTSUNNY 85 66 53 NE9 30.12F AUGUSTA-BUSH MOSUNNY 93 71 48 NW9 30.03F HX 100 AUGUSTA-DANIEL MOSUNNY 90 66 45 NW10G18 30.07F HX 92 SWAINSBORO MOCLDY 88 77 70 NW10 30.05F HX 100 VIDALIA CLOUDY 86 79 79 W5 30.05S HX 99 EASTMAN FAIR 90 65 43 NW6 30.08F HX 91 HAZLEHURST N/A 86 81 84 CALM 30.04F HX 102 ALMA PTSUNNY 89 73 59 SW9 30.05F HX 97 WAYCROSS CLOUDY 91 79 67 W10G17 30.04F HX 107 JESUP MOCLDY 86 70 58 SW7 30.04S HX 90 BAXLEY FAIR 90 79 70 W8 30.04F HX 105 BRUNSWICK MOSUNNY 95 73 49 SW12G17 30.04F HX 105 SAINT SIMONS MOSUNNY 95 70 44 SW10G20 30.04F HX 101 $$ SCZ027-028-034-036>038-045-046-048>050-GAZ119-141-252000- ...LAKE AND SUPPLEMENTAL COASTAL OBSERVATIONS... STATION/POSITION TIME TEMP WIND PRES WAVE SWELL AIR SEA DIR/SP/G HT/PER HT/PER/DIR (UTC) (F) (DEG/KT/KT) (MB) (FT/S) (FT/S/D) WINYAH BAY 1845 87 240/ 5 1017.0F LAKE MURRAY 1920 88 CALM / 1 1016.3 ACE BASIN NERRS 1830 83 150/ 1 1018.0S FORT PULASKI 1900 87 85 180/ 9/ 15 1017.0 SAPELO ISLAND 1900 92 230/ 11 1017.0 $$ ANZ835-935-AMZ111-154-330-350-352-354-370-450-454-472-252000- ...C-MAN AND BUOY OBSERVATIONS... STATION/POSITION TIME TEMP WIND PRES WAVE SWELL AIR SEA DIR/SP/G HT/PER HT/PER/DIR (UTC) (F) (DEG/KT/KT) (MB) (FT/S) (FT/S/D) BUOY 41004 1910 80 81 220/ 12/ 14 1017.5 BUOY 41008 1850 82 83 170/ 14/ 16 1017.2F 2/ 9 2/120/ 9 FOLLY BEACH CMAN 1900 84 180/ 9/ 11 1018.0F CAPERS NEARSHORE 1908 88 86 200/ 12/ 16 1017.1F FRIPP NEARSHORE 1908 82 85 190/ 8/ 12 1017.4F STATION/POSITION TIME TEMP WIND PRES WAVE SWELL AIR SEA DIR/SP/G HT/PER HT/PER/DIR (UTC) (F) (DEG/KT/KT) (MB) (FT/S) (FT/S/D) 5E ST. MARYS GA 1900 82 N/A 2/ 8 FRYING PAN BUOY 1910 81 80 240/ 10/ 12 1017.0 BUOY 41025 1850 79 81 280/ 6/ 8 1016.5F 3/ 6 3/220/ 6 CAPE LOOKOUT NC 1900 80 240/ 9/ 12 1016.1F BUOY 41002 1850 81 81 220/ 14/ 16 1019.9F 4/ 5 2/110/ 8 BUOY 41010 1910 83 84 180/ 8/ 10 1020.0 ST AUGUSTINE FL 1900 79 80 130/ 10/ 12 1018.6F $$

USA.gov is the U.S. government's official web portal to all federal, state and local government web resources and services.